| time (UTC) | temp F | wind direction | speed knots | gust knots | rain 1hr in | rain 24hr in | rain mn in | humidity % | barometer mb |
| 20260831185813 | 99 | 169 | 2.6 | 4.3 | 0.00 | 0.00 | 0.00 | 42 | 1017.5 |
| 20260831185309 | 98 | 204 | 0.0 | 0.9 | 0.00 | 0.00 | 0.00 | 43 | 1017.5 |
| 20260831184808 | 98 | 214 | 2.6 | 4.3 | 0.00 | 0.00 | 0.00 | 43 | 1017.5 |
| 20260831184304 | 98 | 235 | 1.7 | 1.7 | 0.00 | 0.00 | 0.00 | 43 | 1017.5 |
| 20260831183759 | 95 | 74 | 2.6 | 5.2 | 0.00 | 0.00 | 0.00 | 45 | 1017.9 |
| 20260831183258 | 95 | 143 | 4.3 | 6.1 | 0.00 | 0.00 | 0.00 | 46 | 1017.9 |
| 20260831182757 | 98 | 138 | 4.3 | 6.1 | 0.00 | 0.00 | 0.00 | 43 | 1017.9 |
| 20260831182253 | 96 | 77 | 1.7 | 1.7 | 0.00 | 0.00 | 0.00 | 46 | 1017.9 |
| 20260831181748 | 97 | 191 | 3.5 | 4.3 | 0.00 | 0.00 | 0.00 | 45 | 1018.2 |
| 20260831181243 | 96 | 108 | 1.7 | 1.7 | 0.00 | 0.00 | 0.00 | 46 | 1017.9 |
| 20260831180743 | 96 | 204 | 2.6 | 2.6 | 0.00 | 0.00 | 0.00 | 46 | 1017.9 |
| 20260831180238 | 96 | 312 | 1.7 | 1.7 | 0.00 | 0.00 | 0.00 | 47 | 1018.2 |
| 20260831175737 | 96 | 202 | 1.7 | 2.6 | 0.00 | 0.00 | 0.00 | 46 | 1018.2 |
| 20260831175234 | 95 | 277 | 1.7 | 1.7 | 0.00 | 0.00 | 0.00 | 47 | 1018.2 |
| 20260831174729 | 95 | 184 | 2.6 | 4.3 | 0.00 | 0.00 | 0.00 | 46 | 1018.2 |
| 20260831174224 | 96 | 195 | 1.7 | 2.6 | 0.00 | 0.00 | 0.00 | 47 | 1018.5 |
| 20260831173724 | 95 | 236 | 1.7 | 1.7 | 0.00 | 0.00 | 0.00 | 49 | 1018.5 |
| 20260831173218 | 95 | 218 | 4.3 | 6.1 | 0.00 | 0.00 | 0.00 | 47 | 1018.9 |
| 20260831172713 | 94 | 187 | 0.0 | 0.9 | 0.00 | 0.00 | 0.00 | 50 | 1018.9 |
| 20260831172208 | 94 | 242 | 3.5 | 4.3 | 0.00 | 0.00 | 0.00 | 51 | 1018.9 |
| 20260831171703 | 93 | 240 | 1.7 | 1.7 | 0.00 | 0.00 | 0.00 | 51 | 1018.9 |
| 20260831171200 | 91 | 277 | 0.9 | 0.9 | 0.00 | 0.00 | 0.00 | 55 | 1018.9 |
| 20260831170656 | 92 | 259 | 0.0 | 0.0 | 0.00 | 0.00 | 0.00 | 55 | 1018.5 |
| 20260831170153 | 92 | 251 | 2.6 | 5.2 | 0.00 | 0.00 | 0.00 | 54 | 1018.9 |
| 20260831165648 | 92 | 305 | 3.5 | 5.2 | 0.00 | 0.00 | 0.00 | 55 | 1018.9 |
| 20260831165145 | 92 | 231 | 0.9 | 1.7 | 0.00 | 0.00 | 0.00 | 55 | 1018.9 |
| 20260831164641 | 92 | 180 | 2.6 | 4.3 | 0.00 | 0.00 | 0.00 | 54 | 1018.9 |
| 20260831164136 | 92 | 222 | 2.6 | 4.3 | 0.00 | 0.00 | 0.00 | 55 | 1018.9 |
| 20260831163631 | 92 | 183 | 2.6 | 2.6 | 0.00 | 0.00 | 0.00 | 56 | 1019.3 |
| 20260831163127 | 91 | 181 | 3.5 | 4.3 | 0.00 | 0.00 | 0.00 | 59 | 1018.9 |
| 20260831162626 | 92 | 215 | 3.5 | 5.2 | 0.00 | 0.00 | 0.00 | 56 | 1018.9 |
| 20260831162124 | 90 | 183 | 2.6 | 2.6 | 0.00 | 0.00 | 0.00 | 59 | 1018.9 |
| 20260831161620 | 90 | 220 | 2.6 | 4.3 | 0.00 | 0.00 | 0.00 | 60 | 1018.9 |
| 20260831161117 | 89 | 235 | 1.7 | 2.6 | 0.00 | 0.00 | 0.00 | 62 | 1018.9 |
| 20260831160615 | 91 | 144 | 2.6 | 5.2 | 0.00 | 0.00 | 0.00 | 60 | 1019.3 |
| 20260831160111 | 90 | 158 | 2.6 | 2.6 | 0.00 | 0.00 | 0.00 | 61 | 1018.9 |
| 20260831155605 | 91 | 271 | 3.5 | 4.3 | 0.00 | 0.00 | 0.00 | 60 | 1019.3 |
| 20260831155101 | 90 | 213 | 2.6 | 2.6 | 0.00 | 0.00 | 0.00 | 60 | 1018.9 |
| 20260831154557 | 91 | 238 | 1.7 | 2.6 | 0.00 | 0.00 | 0.00 | 59 | 1018.9 |
| 20260831154056 | 89 | 223 | 2.6 | 2.6 | 0.00 | 0.00 | 0.00 | 60 | 1018.9 |
| 20260831153555 | 90 | 206 | 3.5 | 6.1 | 0.00 | 0.00 | 0.00 | 61 | 1018.9 |
| 20260831153053 | 89 | 221 | 0.9 | 0.9 | 0.00 | 0.00 | 0.00 | 65 | 1018.5 |
| 20260831152548 | 89 | 78 | 2.6 | 2.6 | 0.00 | 0.00 | 0.00 | 67 | 1018.9 |
| 20260831152043 | 89 | 265 | 0.9 | 0.9 | 0.00 | 0.00 | 0.00 | 65 | 1018.5 |
| 20260831151542 | 89 | 343 | 0.9 | 0.9 | 0.00 | 0.00 | 0.00 | 65 | 1018.9 |
| 20260831151037 | 86 | 142 | 0.9 | 1.7 | 0.00 | 0.00 | 0.00 | 70 | 1018.9 |
| 20260831150532 | 86 | 234 | 5.2 | 6.1 | 0.00 | 0.00 | 0.00 | 72 | 1018.5 |
| 20260831150029 | 85 | 216 | 2.6 | 2.6 | 0.00 | 0.00 | 0.00 | 74 | 1018.9 |
| 20260831145522 | 86 | 207 | 2.6 | 2.6 | 0.00 | 0.00 | 0.00 | 74 | 1018.9 |
| 20260831145019 | 86 | 281 | 0.9 | 1.7 | 0.00 | 0.00 | 0.00 | 73 | 1018.5 |
| 20260831144514 | 85 | 207 | 2.6 | 2.6 | 0.00 | 0.00 | 0.00 | 76 | 1018.5 |
| 20260831144010 | 86 | 187 | 2.6 | 2.6 | 0.00 | 0.00 | 0.00 | 75 | 1018.9 |
| 20260831143504 | 86 | 115 | 0.9 | 1.7 | 0.00 | 0.00 | 0.00 | 76 | 1018.5 |
| 20260831143000 | 85 | 262 | 0.9 | 0.9 | 0.00 | 0.00 | 0.00 | 77 | 1018.5 |
| 20260831142456 | 85 | 180 | 0.9 | 0.9 | 0.00 | 0.00 | 0.00 | 78 | 1018.5 |
| 20260831141955 | 84 | 254 | 1.7 | 2.6 | 0.00 | 0.00 | 0.00 | 80 | 1018.2 |
| 20260831141449 | 85 | 139 | 0.9 | 0.9 | 0.00 | 0.00 | 0.00 | 79 | 1018.2 |
| 20260831140944 | 84 | 172 | 0.0 | 0.0 | 0.00 | 0.00 | 0.00 | 82 | 1018.9 |
| 20260831140439 | 83 | 188 | 2.6 | 2.6 | 0.00 | 0.00 | 0.00 | 82 | 1018.5 |
| 20260831135938 | 82 | 232 | 1.7 | 2.6 | 0.00 | 0.00 | 0.00 | 84 | 1018.5 |
| 20260831135437 | 82 | 174 | 2.6 | 2.6 | 0.00 | 0.00 | 0.00 | 84 | 1018.5 |
| 20260831134932 | 82 | 202 | 4.3 | 5.2 | 0.00 | 0.00 | 0.00 | 84 | 1018.5 |
| 20260831134429 | 82 | 215 | 0.9 | 0.9 | 0.00 | 0.00 | 0.00 | 85 | 1018.2 |
| 20260831133929 | 81 | 251 | 0.0 | 0.0 | 0.00 | 0.00 | 0.00 | 89 | 1017.9 |
| 20260831133429 | 80 | 188 | 0.9 | 1.7 | 0.00 | 0.00 | 0.00 | 90 | 1018.2 |
| 20260831132924 | 79 | 191 | 0.9 | 1.7 | 0.00 | 0.00 | 0.00 | 91 | 1017.9 |
| 20260831132419 | 79 | 222 | 0.9 | 0.9 | 0.00 | 0.00 | 0.00 | 92 | 1018.2 |
| 20260831131919 | 79 | 226 | 0.9 | 0.9 | 0.00 | 0.00 | 0.00 | 93 | 1017.9 |
| 20260831131414 | 78 | 236 | 0.0 | 0.0 | 0.00 | 0.00 | 0.00 | 93 | 1017.9 |
| 20260831130910 | 78 | 210 | 1.7 | 1.7 | 0.00 | 0.00 | 0.00 | 93 | 1017.9 |
| 20260831130405 | 78 | 247 | 0.0 | 0.0 | 0.00 | 0.00 | 0.00 | 94 | 1017.9 |
| 20260831125904 | 78 | 207 | 0.9 | 0.9 | 0.00 | 0.00 | 0.00 | 94 | 1017.9 |
| 20260831125359 | 78 | 264 | 0.0 | 0.9 | 0.00 | 0.00 | 0.00 | 94 | 1017.9 |
| 20260831124854 | 78 | 242 | 0.0 | 0.0 | 0.00 | 0.00 | 0.00 | 94 | 1017.9 |
| 20260831124350 | 77 | 222 | 0.0 | 0.0 | 0.00 | 0.00 | 0.00 | 94 | 1017.9 |
| 20260831123845 | 77 | 241 | 0.0 | 0.0 | 0.00 | 0.00 | 0.00 | 94 | 1017.9 |
| 20260831123344 | 77 | 232 | 0.0 | 0.0 | 0.00 | 0.00 | 0.00 | 94 | 1017.5 |
| 20260831122839 | 77 | 239 | 0.0 | 0.0 | 0.00 | 0.00 | 0.00 | 94 | 1017.9 |
| 20260831122335 | 77 | 253 | 0.0 | 0.0 | 0.00 | 0.00 | 0.00 | 93 | 1017.9 |
| 20260831121834 | 78 | 242 | 0.0 | 0.0 | 0.00 | 0.00 | 0.00 | 93 | 1017.5 |
| 20260831121331 | 78 | 246 | 0.0 | 0.9 | 0.00 | 0.00 | 0.00 | 93 | 1017.5 |
| 20260831120826 | 78 | 237 | 0.0 | 0.0 | 0.00 | 0.00 | 0.00 | 93 | 1017.5 |
| 20260831120320 | 78 | 242 | 0.0 | 0.0 | 0.00 | 0.00 | 0.00 | 93 | 1017.5 |
| 20260831115815 | 78 | 248 | 0.0 | 0.9 | 0.00 | 0.00 | 0.00 | 92 | 1017.2 |
| 20260831115312 | 78 | 253 | 0.0 | 0.0 | 0.00 | 0.00 | 0.00 | 92 | 1017.2 |
| 20260831114810 | 78 | 234 | 0.0 | 0.9 | 0.00 | 0.00 | 0.00 | 92 | 1017.2 |
| 20260831114304 | 78 | 231 | 0.9 | 1.7 | 0.00 | 0.00 | 0.00 | 92 | 1017.5 |
| 20260831113800 | 78 | 205 | 1.7 | 1.7 | 0.00 | 0.00 | 0.00 | 92 | 1017.5 |
| 20260831113259 | 78 | 213 | 0.0 | 0.9 | 0.00 | 0.00 | 0.00 | 91 | 1017.5 |
| 20260831112754 | 78 | 245 | 0.9 | 0.9 | 0.00 | 0.00 | 0.00 | 91 | 1017.5 |
| 20260831112249 | 78 | 218 | 0.9 | 1.7 | 0.00 | 0.00 | 0.00 | 91 | 1017.5 |
| 20260831111745 | 79 | 232 | 0.0 | 0.0 | 0.00 | 0.00 | 0.00 | 91 | 1017.5 |
| 20260831111241 | 79 | 234 | 0.0 | 0.9 | 0.00 | 0.00 | 0.00 | 91 | 1017.5 |
| 20260831110737 | 79 | 225 | 0.9 | 0.9 | 0.00 | 0.00 | 0.00 | 91 | 1017.2 |
| 20260831110231 | 79 | 240 | 0.0 | 0.9 | 0.00 | 0.00 | 0.00 | 91 | 1017.2 |
| 20260831105730 | 78 | 242 | 0.9 | 0.9 | 0.00 | 0.00 | 0.00 | 91 | 1017.5 |
| 20260831105226 | 78 | 215 | 0.0 | 0.0 | 0.00 | 0.00 | 0.00 | 91 | 1017.5 |
| 20260831104720 | 78 | 183 | 1.7 | 1.7 | 0.00 | 0.00 | 0.00 | 91 | 1017.5 |
| 20260831104217 | 78 | 232 | 0.0 | 0.0 | 0.00 | 0.00 | 0.00 | 91 | 1017.5 |
| 20260831103717 | 78 | 169 | 0.0 | 0.0 | 0.00 | 0.00 | 0.00 | 91 | 1017.5 |
| 20260831103213 | 78 | 204 | 0.9 | 1.7 | 0.00 | 0.00 | 0.00 | 90 | 1017.5 |
| 20260831102712 | 78 | 178 | 1.7 | 1.7 | 0.00 | 0.00 | 0.00 | 90 | 1017.2 |
| 20260831102207 | 79 | 221 | 0.9 | 0.9 | 0.00 | 0.00 | 0.00 | 90 | 1017.2 |
| 20260831101703 | 79 | 252 | 0.0 | 0.9 | 0.00 | 0.00 | 0.00 | 90 | 1017.2 |
| 20260831101158 | 79 | 253 | 0.0 | 0.0 | 0.00 | 0.00 | 0.00 | 90 | 1017.2 |
| 20260831100654 | 79 | 239 | 0.0 | 0.0 | 0.00 | 0.00 | 0.00 | 89 | 1017.2 |
| 20260831100150 | 79 | 215 | 1.7 | 1.7 | 0.00 | 0.00 | 0.00 | 89 | 1017.5 |
| 20260831095648 | 79 | 201 | 2.6 | 2.6 | 0.00 | 0.00 | 0.00 | 89 | 1017.2 |
| 20260831095143 | 79 | 257 | 0.0 | 0.0 | 0.00 | 0.00 | 0.00 | 88 | 1017.2 |
| 20260831094638 | 79 | 199 | 1.7 | 1.7 | 0.00 | 0.00 | 0.00 | 88 | 1017.5 |
| 20260831094135 | 79 | 261 | 0.9 | 0.9 | 0.00 | 0.00 | 0.00 | 88 | 1017.2 |
| 20260831093630 | 79 | 248 | 0.9 | 0.9 | 0.00 | 0.00 | 0.00 | 88 | 1017.5 |
| 20260831093126 | 79 | 212 | 2.6 | 2.6 | 0.00 | 0.00 | 0.00 | 88 | 1017.2 |
| 20260831092622 | 79 | 207 | 2.6 | 2.6 | 0.00 | 0.00 | 0.00 | 88 | 1017.5 |
| 20260831092117 | 79 | 195 | 0.9 | 0.9 | 0.00 | 0.00 | 0.00 | 87 | 1017.2 |
| 20260831091617 | 79 | 154 | 0.9 | 0.9 | 0.00 | 0.00 | 0.00 | 87 | 1017.2 |
| 20260831091112 | 79 | 176 | 1.7 | 1.7 | 0.00 | 0.00 | 0.00 | 87 | 1017.2 |
| 20260831090608 | 79 | 239 | 1.7 | 1.7 | 0.00 | 0.00 | 0.00 | 87 | 1017.2 |
| 20260831090104 | 79 | 232 | 0.9 | 0.9 | 0.00 | 0.00 | 0.00 | 87 | 1017.2 |
| 20260831085559 | 79 | 251 | 0.0 | 0.9 | 0.00 | 0.00 | 0.00 | 87 | 1017.2 |
| 20260831085054 | 79 | 170 | 1.7 | 1.7 | 0.00 | 0.00 | 0.00 | 87 | 1017.2 |
| 20260831084550 | 79 | 249 | 0.9 | 0.9 | 0.00 | 0.00 | 0.00 | 87 | 1017.2 |
| 20260831084046 | 79 | 244 | 1.7 | 1.7 | 0.00 | 0.00 | 0.00 | 86 | 1017.2 |
| 20260831083542 | 80 | 201 | 0.9 | 1.7 | 0.00 | 0.00 | 0.00 | 86 | 1017.2 |
| 20260831083036 | 80 | 255 | 0.9 | 0.9 | 0.00 | 0.00 | 0.00 | 86 | 1017.2 |
| 20260831082535 | 80 | 245 | 1.7 | 1.7 | 0.00 | 0.00 | 0.00 | 86 | 1017.5 |
| 20260831082031 | 80 | 152 | 0.0 | 0.9 | 0.00 | 0.00 | 0.00 | 85 | 1017.5 |
| 20260831081526 | 80 | 256 | 0.0 | 0.9 | 0.00 | 0.00 | 0.00 | 85 | 1017.2 |
| 20260831081022 | 80 | 243 | 1.7 | 1.7 | 0.00 | 0.00 | 0.00 | 85 | 1017.5 |
| 20260831080516 | 80 | 206 | 1.7 | 1.7 | 0.00 | 0.00 | 0.00 | 84 | 1017.2 |
| 20260831080012 | 80 | 204 | 2.6 | 2.6 | 0.00 | 0.00 | 0.00 | 84 | 1017.2 |
| 20260831075507 | 80 | 175 | 1.7 | 1.7 | 0.00 | 0.00 | 0.00 | 84 | 1017.5 |
| 20260831074957 | 81 | 207 | 2.6 | 2.6 | 0.00 | 0.00 | 0.00 | 83 | 1017.2 |
| 20260831074456 | 81 | 185 | 0.9 | 0.9 | 0.00 | 0.00 | 0.00 | 83 | 1017.2 |
| 20260831073951 | 81 | 203 | 2.6 | 5.2 | 0.00 | 0.00 | 0.00 | 83 | 1017.5 |
| 20260831073450 | 81 | 251 | 0.9 | 0.9 | 0.00 | 0.00 | 0.00 | 82 | 1017.5 |
| 20260831072949 | 81 | 244 | 1.7 | 1.7 | 0.00 | 0.00 | 0.00 | 81 | 1017.5 |
| 20260831072446 | 81 | 206 | 1.7 | 1.7 | 0.00 | 0.00 | 0.00 | 81 | 1017.5 |
| 20260831071942 | 81 | 250 | 0.0 | 0.9 | 0.00 | 0.00 | 0.00 | 80 | 1017.2 |
| 20260831071441 | 81 | 235 | 0.9 | 0.9 | 0.00 | 0.00 | 0.00 | 80 | 1017.2 |
| 20260831070936 | 81 | 220 | 0.9 | 1.7 | 0.00 | 0.00 | 0.00 | 79 | 1017.5 |
| 20260831070435 | 82 | 158 | 3.5 | 4.3 | 0.00 | 0.00 | 0.00 | 78 | 1017.5 |
| 20260831065935 | 82 | 203 | 1.7 | 1.7 | 0.00 | 0.00 | 0.00 | 78 | 1017.2 |
| 20260831065433 | 82 | 207 | 0.9 | 0.9 | 0.00 | 0.00 | 0.00 | 77 | 1017.5 |
| 20260831064928 | 82 | 193 | 0.9 | 0.9 | 0.00 | 0.00 | 0.00 | 77 | 1017.5 |
| 20260831064423 | 82 | 248 | 0.9 | 0.9 | 0.00 | 0.00 | 0.00 | 76 | 1017.5 |
| 20260831063919 | 82 | 190 | 0.9 | 1.7 | 0.00 | 0.00 | 0.00 | 76 | 1017.5 |
| 20260831063414 | 82 | 207 | 2.6 | 2.6 | 0.00 | 0.00 | 0.00 | 76 | 1017.5 |
| 20260831062913 | 82 | 206 | 1.7 | 1.7 | 0.00 | 0.00 | 0.00 | 75 | 1017.5 |
| 20260831062409 | 83 | 213 | 1.7 | 2.6 | 0.00 | 0.00 | 0.00 | 75 | 1017.5 |
| 20260831061908 | 83 | 177 | 2.6 | 2.6 | 0.00 | 0.00 | 0.00 | 74 | 1017.9 |
| 20260831061407 | 83 | 183 | 1.7 | 1.7 | 0.00 | 0.00 | 0.00 | 74 | 1017.5 |
| 20260831060903 | 83 | 234 | 0.9 | 0.9 | 0.00 | 0.00 | 0.00 | 73 | 1017.5 |
| 20260831060358 | 83 | 215 | 1.7 | 2.6 | 0.00 | 0.00 | 0.00 | 73 | 1017.2 |
| 20260831055857 | 83 | 230 | 1.7 | 2.6 | 0.00 | 0.00 | 0.00 | 73 | 1017.5 |
| 20260831055352 | 84 | 175 | 3.5 | 4.3 | 0.00 | 0.00 | 0.00 | 72 | 1017.2 |
| 20260831054848 | 84 | 175 | 1.7 | 1.7 | 0.00 | 0.00 | 0.00 | 72 | 1017.2 |
| 20260831054343 | 84 | 229 | 0.9 | 1.7 | 0.00 | 0.00 | 0.00 | 71 | 1017.2 |
| 20260831053842 | 84 | 259 | 1.7 | 1.7 | 0.00 | 0.00 | 0.00 | 71 | 1017.5 |
| 20260831053340 | 84 | 238 | 2.6 | 2.6 | 0.00 | 0.00 | 0.00 | 71 | 1017.2 |
| 20260831052835 | 84 | 247 | 0.0 | 0.9 | 0.00 | 0.00 | 0.00 | 70 | 1017.2 |
| 20260831052334 | 84 | 221 | 0.9 | 0.9 | 0.00 | 0.00 | 0.00 | 69 | 1017.2 |
| 20260831051833 | 85 | 208 | 2.6 | 4.3 | 0.00 | 0.00 | 0.00 | 69 | 1017.2 |
| 20260831051331 | 85 | 242 | 0.9 | 0.9 | 0.00 | 0.00 | 0.00 | 68 | 1016.9 |
| 20260831050826 | 85 | 224 | 1.7 | 1.7 | 0.00 | 0.00 | 0.00 | 68 | 1017.2 |
| 20260831050326 | 85 | 192 | 1.7 | 2.6 | 0.00 | 0.00 | 0.00 | 67 | 1017.2 |
| 20260831045820 | 85 | 286 | 0.0 | 0.0 | 0.00 | 0.00 | 0.00 | 67 | 1016.9 |
| 20260831045314 | 86 | 175 | 2.6 | 2.6 | 0.00 | 0.00 | 0.00 | 67 | 1016.9 |
| 20260831044809 | 86 | 199 | 3.5 | 5.2 | 0.00 | 0.00 | 0.00 | 66 | 1017.2 |
| 20260831044304 | 86 | 140 | 0.9 | 1.7 | 0.00 | 0.00 | 0.00 | 65 | 1016.9 |
| 20260831043800 | 86 | 218 | 4.3 | 7.0 | 0.00 | 0.00 | 0.00 | 65 | 1017.2 |
| 20260831043254 | 86 | 169 | 2.6 | 2.6 | 0.00 | 0.00 | 0.00 | 64 | 1016.9 |
| 20260831042754 | 86 | 172 | 1.7 | 1.7 | 0.00 | 0.00 | 0.00 | 63 | 1016.9 |
| 20260831042249 | 87 | 100 | 1.7 | 1.7 | 0.00 | 0.00 | 0.00 | 63 | 1016.9 |
| 20260831041744 | 87 | 229 | 1.7 | 1.7 | 0.00 | 0.00 | 0.00 | 62 | 1016.9 |
| 20260831041244 | 87 | 181 | 0.9 | 1.7 | 0.00 | 0.00 | 0.00 | 61 | 1016.9 |
| 20260831040739 | 87 | 191 | 2.6 | 4.3 | 0.00 | 0.00 | 0.00 | 61 | 1016.9 |
| 20260831040238 | 87 | 189 | 2.6 | 4.3 | 0.00 | 0.00 | 0.00 | 61 | 1016.9 |
| 20260831035737 | 87 | 150 | 2.6 | 2.6 | 0.00 | 0.00 | 0.00 | 60 | 1016.9 |
| 20260831035236 | 88 | 188 | 2.6 | 2.6 | 0.00 | 0.00 | 0.00 | 59 | 1016.9 |
| 20260831034735 | 88 | 230 | 2.6 | 2.6 | 0.00 | 0.00 | 0.00 | 59 | 1016.5 |
| 20260831034231 | 88 | 139 | 2.6 | 4.3 | 0.00 | 0.00 | 0.00 | 59 | 1016.5 |
| 20260831033726 | 88 | 217 | 1.7 | 4.3 | 0.00 | 0.00 | 0.00 | 59 | 1016.5 |
| 20260831033226 | 88 | 257 | 1.7 | 1.7 | 0.00 | 0.00 | 0.00 | 59 | 1016.5 |
| 20260831032721 | 88 | 200 | 1.7 | 2.6 | 0.00 | 0.00 | 0.00 | 59 | 1016.5 |
| 20260831032216 | 88 | 215 | 2.6 | 2.6 | 0.00 | 0.00 | 0.00 | 59 | 1016.5 |
| 20260831031711 | 88 | 226 | 1.7 | 1.7 | 0.00 | 0.00 | 0.00 | 58 | 1016.2 |
| 20260831031205 | 88 | 135 | 2.6 | 4.3 | 0.00 | 0.00 | 0.00 | 58 | 1016.5 |
| 20260831030704 | 89 | 197 | 1.7 | 2.6 | 0.00 | 0.00 | 0.00 | 58 | 1015.8 |
| 20260831030203 | 89 | 242 | 0.9 | 1.7 | 0.00 | 0.00 | 0.00 | 58 | 1016.2 |
| 20260831025702 | 89 | 199 | 1.7 | 2.6 | 0.00 | 0.00 | 0.00 | 57 | 1016.2 |
| 20260831025157 | 89 | 169 | 3.5 | 4.3 | 0.00 | 0.00 | 0.00 | 57 | 1015.8 |
| 20260831024653 | 89 | 125 | 1.7 | 1.7 | 0.00 | 0.00 | 0.00 | 57 | 1015.8 |
| 20260831024151 | 89 | 211 | 3.5 | 5.2 | 0.00 | 0.00 | 0.00 | 57 | 1015.8 |
| 20260831023649 | 89 | 182 | 0.0 | 0.9 | 0.00 | 0.00 | 0.00 | 57 | 1015.8 |
| 20260831023143 | 89 | 134 | 6.1 | 9.6 | 0.00 | 0.00 | 0.00 | 57 | 1015.8 |
| 20260831022633 | 89 | 170 | 0.9 | 0.9 | 0.00 | 0.00 | 0.00 | 57 | 1015.5 |
| 20260831022128 | 89 | 113 | 2.6 | 2.6 | 0.00 | 0.00 | 0.00 | 56 | 1015.2 |
| 20260831021627 | 89 | 102 | 0.9 | 1.7 | 0.00 | 0.00 | 0.00 | 57 | 1015.2 |
| 20260831021122 | 89 | 115 | 0.9 | 4.3 | 0.00 | 0.00 | 0.00 | 57 | 1015.5 |
| 20260831020618 | 90 | 359 | 0.9 | 1.7 | 0.00 | 0.00 | 0.00 | 57 | 1015.2 |
| 20260831020113 | 90 | 162 | 2.6 | 4.3 | 0.00 | 0.00 | 0.00 | 57 | 1015.2 |
| 20260831015609 | 90 | 109 | 2.6 | 4.3 | 0.00 | 0.00 | 0.00 | 56 | 1015.2 |
| 20260831015109 | 90 | 148 | 4.3 | 6.1 | 0.00 | 0.00 | 0.00 | 56 | 1015.2 |
| 20260831014603 | 91 | 122 | 4.3 | 6.1 | 0.00 | 0.00 | 0.00 | 56 | 1014.8 |
| 20260831014059 | 91 | 170 | 7.0 | 7.0 | 0.00 | 0.00 | 0.00 | 55 | 1014.8 |
| 20260831013555 | 91 | 154 | 2.6 | 4.3 | 0.00 | 0.00 | 0.00 | 55 | 1014.5 |
| 20260831013054 | 91 | 39 | 3.5 | 4.3 | 0.00 | 0.00 | 0.00 | 54 | 1014.8 |
| 20260831012549 | 92 | 258 | 2.6 | 5.2 | 0.00 | 0.00 | 0.00 | 52 | 1014.5 |
| 20260831012044 | 93 | 160 | 6.1 | 7.8 | 0.00 | 0.00 | 0.00 | 48 | 1014.5 |
| 20260831011543 | 93 | 137 | 6.1 | 8.7 | 0.00 | 0.00 | 0.00 | 44 | 1014.5 |
| 20260831011039 | 93 | 153 | 0.0 | 0.0 | 0.00 | 0.00 | 0.00 | 43 | 1014.1 |
| 20260831010534 | 94 | 160 | 0.0 | 0.9 | 0.00 | 0.00 | 0.00 | 43 | 1014.1 |
| 20260831010030 | 94 | 212 | 0.0 | 0.0 | 0.00 | 0.00 | 0.00 | 42 | 1014.1 |
| 20260831005525 | 95 | 189 | 0.0 | 0.0 | 0.00 | 0.00 | 0.00 | 41 | 1014.1 |
| 20260831005024 | 95 | 107 | 0.0 | 0.0 | 0.00 | 0.00 | 0.00 | 41 | 1014.5 |
| 20260831004521 | 95 | 223 | 0.9 | 0.9 | 0.00 | 0.00 | 0.00 | 40 | 1014.5 |
| 20260831004016 | 95 | 152 | 4.3 | 4.3 | 0.00 | 0.00 | 0.00 | 40 | 1014.1 |
| 20260831003512 | 96 | 167 | 1.7 | 1.7 | 0.00 | 0.00 | 0.00 | 40 | 1014.1 |
| 20260831003008 | 96 | 111 | 2.6 | 2.6 | 0.00 | 0.00 | 0.00 | 40 | 1013.8 |
| 20260831002506 | 96 | 230 | 0.0 | 0.9 | 0.00 | 0.00 | 0.00 | 40 | 1014.1 |
| 20260831002001 | 96 | 111 | 0.9 | 0.9 | 0.00 | 0.00 | 0.00 | 40 | 1014.1 |
| 20260831001456 | 96 | 114 | 2.6 | 4.3 | 0.00 | 0.00 | 0.00 | 39 | 1014.1 |
| 20260831000953 | 96 | 162 | 2.6 | 4.3 | 0.00 | 0.00 | 0.00 | 39 | 1014.1 |
| 20260831000449 | 96 | 169 | 2.6 | 2.6 | 0.00 | 0.00 | 0.00 | 40 | 1014.1 |
| 20260830235947 | 97 | 222 | 0.0 | 0.9 | 0.00 | 0.00 | 0.00 | 40 | 1013.8 |
| 20260830235442 | 97 | 166 | 2.6 | 2.6 | 0.00 | 0.00 | 0.00 | 40 | 1014.1 |
| 20260830234938 | 97 | 221 | 1.7 | 2.6 | 0.00 | 0.00 | 0.00 | 39 | 1014.1 |
| 20260830234432 | 98 | 227 | 1.7 | 2.6 | 0.00 | 0.00 | 0.00 | 39 | 1014.1 |
| 20260830233928 | 97 | 148 | 1.7 | 1.7 | 0.00 | 0.00 | 0.00 | 39 | 1014.1 |
| 20260830233424 | 98 | 134 | 6.1 | 7.0 | 0.00 | 0.00 | 0.00 | 39 | 1014.5 |
| 20260830232919 | 98 | 60 | 1.7 | 1.7 | 0.00 | 0.00 | 0.00 | 39 | 1014.1 |
| 20260830232415 | 98 | 194 | 2.6 | 4.3 | 0.00 | 0.00 | 0.00 | 39 | 1014.5 |
| 20260830231912 | 99 | 204 | 1.7 | 1.7 | 0.00 | 0.00 | 0.00 | 39 | 1014.1 |
| 20260830231406 | 98 | 174 | 0.0 | 0.9 | 0.00 | 0.00 | 0.00 | 39 | 1014.1 |
| 20260830230906 | 97 | 248 | 0.9 | 0.9 | 0.00 | 0.00 | 0.00 | 40 | 1014.1 |
| 20260830230401 | 98 | 193 | 0.9 | 1.7 | 0.00 | 0.00 | 0.00 | 39 | 1014.1 |
| 20260830225900 | 97 | 59 | 0.0 | 0.9 | 0.00 | 0.00 | 0.00 | 40 | 1014.1 |
| 20260830225356 | 97 | 149 | 4.3 | 7.0 | 0.00 | 0.00 | 0.00 | 40 | 1014.1 |
| 20260830224850 | 98 | 131 | 4.3 | 6.1 | 0.00 | 0.00 | 0.00 | 40 | 1014.5 |
| 20260830224344 | 99 | 248 | 0.9 | 1.7 | 0.00 | 0.00 | 0.00 | 39 | 1014.1 |
| 20260830223841 | 100 | 156 | 2.6 | 4.3 | 0.00 | 0.00 | 0.00 | 38 | 1014.1 |
| 20260830223337 | 100 | 45 | 0.0 | 0.0 | 0.00 | 0.00 | 0.00 | 38 | 1014.1 |
| 20260830222836 | 100 | 284 | 0.9 | 0.9 | 0.00 | 0.00 | 0.00 | 38 | 1014.1 |
| 20260830222332 | 99 | 138 | 1.7 | 2.6 | 0.00 | 0.00 | 0.00 | 39 | 1014.5 |
| 20260830221827 | 100 | 132 | 4.3 | 5.2 | 0.00 | 0.00 | 0.00 | 37 | 1014.1 |
| 20260830221324 | 100 | 125 | 1.7 | 1.7 | 0.00 | 0.00 | 0.00 | 37 | 1014.5 |
| 20260830220824 | 100 | 337 | 0.9 | 1.7 | 0.00 | 0.00 | 0.00 | 38 | 1014.5 |
| 20260830220324 | 101 | 87 | 5.2 | 6.1 | 0.00 | 0.00 | 0.00 | 37 | 1014.1 |
| 20260830215821 | 100 | 217 | 2.6 | 4.3 | 0.00 | 0.00 | 0.00 | 36 | 1014.5 |
| 20260830215316 | 100 | 212 | 4.3 | 6.1 | 0.00 | 0.00 | 0.00 | 37 | 1014.1 |
| 20260830214811 | 101 | 149 | 4.3 | 5.2 | 0.00 | 0.00 | 0.00 | 35 | 1014.5 |
| 20260830214307 | 101 | 263 | 1.7 | 1.7 | 0.00 | 0.00 | 0.00 | 36 | 1014.5 |
| 20260830213806 | 102 | 220 | 4.3 | 7.0 | 0.00 | 0.00 | 0.00 | 35 | 1014.5 |
| 20260830213301 | 102 | 194 | 2.6 | 2.6 | 0.00 | 0.00 | 0.00 | 35 | 1014.5 |
| 20260830212757 | 102 | 261 | 2.6 | 4.3 | 0.00 | 0.00 | 0.00 | 35 | 1014.5 |
| 20260830212253 | 100 | 174 | 0.0 | 0.9 | 0.00 | 0.00 | 0.00 | 37 | 1014.5 |
| 20260830211752 | 100 | 266 | 2.6 | 2.6 | 0.00 | 0.00 | 0.00 | 37 | 1015.2 |
| 20260830211251 | 100 | 196 | 1.7 | 1.7 | 0.00 | 0.00 | 0.00 | 37 | 1014.8 |
| 20260830210747 | 100 | 271 | 0.9 | 1.7 | 0.00 | 0.00 | 0.00 | 39 | 1014.8 |
| 20260830210246 | 100 | 223 | 3.5 | 4.3 | 0.00 | 0.00 | 0.00 | 38 | 1015.2 |
| 20260830205744 | 100 | 237 | 2.6 | 2.6 | 0.00 | 0.00 | 0.00 | 39 | 1015.2 |
| 20260830205239 | 100 | 223 | 3.5 | 5.2 | 0.00 | 0.00 | 0.00 | 39 | 1015.5 |
| 20260830204734 | 100 | 203 | 4.3 | 5.2 | 0.00 | 0.00 | 0.00 | 38 | 1015.5 |
| 20260830204232 | 99 | 237 | 1.7 | 2.6 | 0.00 | 0.00 | 0.00 | 39 | 1015.5 |
| 20260830203729 | 102 | 204 | 3.5 | 4.3 | 0.00 | 0.00 | 0.00 | 38 | 1015.5 |
| 20260830203219 | 101 | 249 | 0.9 | 0.9 | 0.00 | 0.00 | 0.00 | 37 | 1015.8 |
| 20260830202718 | 99 | 270 | 1.7 | 1.7 | 0.00 | 0.00 | 0.00 | 40 | 1015.8 |
| 20260830202214 | 99 | 9 | 1.7 | 1.7 | 0.00 | 0.00 | 0.00 | 40 | 1015.8 |
| 20260830201713 | 98 | 238 | 3.5 | 4.3 | 0.00 | 0.00 | 0.00 | 41 | 1016.2 |
| 20260830201209 | 97 | 264 | 0.0 | 0.9 | 0.00 | 0.00 | 0.00 | 44 | 1016.2 |
| 20260830200704 | 96 | 228 | 2.6 | 4.3 | 0.00 | 0.00 | 0.00 | 45 | 1016.2 |
| 20260830200203 | 100 | 221 | 3.5 | 5.2 | 0.00 | 0.00 | 0.00 | 40 | 1016.2 |
| 20260830195659 | 99 | 132 | 5.2 | 6.1 | 0.00 | 0.00 | 0.00 | 42 | 1016.2 |
| 20260830195156 | 99 | 261 | 1.7 | 1.7 | 0.00 | 0.00 | 0.00 | 41 | 1016.2 |
| 20260830194655 | 99 | 215 | 4.3 | 6.1 | 0.00 | 0.00 | 0.00 | 41 | 1016.5 |
| 20260830194150 | 97 | 237 | 0.9 | 0.9 | 0.00 | 0.00 | 0.00 | 45 | 1016.2 |
| 20260830193644 | 97 | 101 | 2.6 | 4.3 | 0.00 | 0.00 | 0.00 | 44 | 1016.9 |
| 20260830193139 | 97 | 272 | 2.6 | 2.6 | 0.00 | 0.00 | 0.00 | 44 | 1016.5 |
| 20260830192634 | 97 | 179 | 4.3 | 6.1 | 0.00 | 0.00 | 0.00 | 44 | 1016.9 |
| 20260830192129 | 96 | 188 | 0.9 | 0.9 | 0.00 | 0.00 | 0.00 | 46 | 1016.9 |
| 20260830191625 | 96 | 358 | 0.9 | 0.9 | 0.00 | 0.00 | 0.00 | 46 | 1016.9 |
| 20260830191120 | 98 | 138 | 4.3 | 6.1 | 0.00 | 0.00 | 0.00 | 42 | 1017.2 |
| 20260830190615 | 99 | 354 | 1.7 | 1.7 | 0.00 | 0.00 | 0.00 | 45 | 1017.2 |
| 20260830190109 | 97 | 216 | 0.9 | 0.9 | 0.00 | 0.00 | 0.00 | 45 | 1017.2 |